This demonstration page uses our WeatherBlox Daily Observations layout. Learn more.

Left ArrowRight Arrow

Hourly Observations for May 31, 2021

Temp ( °F °C ) Dew Point ( °F °C ) Humidity (%) Winds ( mph kmh ) Pressure ( in mb ) Visibility ( mi km ) Precip ( " mm )
12:15 am 00:15 Cloudy 46 8 45 7 93 93 WNW 3 6 30.27 1025 10 16 0.00 0.00
12:35 am 00:35 Cloudy 46 8 45 7 93 93 WNW 3 6 30.28 1025 10 16 0.00 0.00
12:55 am 00:55 Cloudy 46 8 45 7 93 93 NW 7 11 30.28 1025 10 16 0.00 0.00
1:15 am 01:15 Cloudy 46 8 45 7 93 93 NW 5 7 30.28 1025 10 16 0.00 0.00
1:35 am 01:35 Cloudy 46 8 45 7 93 93 NNW 3 6 30.27 1025 10 16 0.00 0.00
1:55 am 01:55 Partly Cloudy 46 8 45 7 93 93 NNW 5 7 30.27 1025 10 16 0.00 0.00
2:15 am 02:15 Partly Cloudy 46 8 45 7 93 93 Calm 30.27 1025 10 16 0.00 0.00
2:35 am 02:35 Clear 45 7 43 6 93 93 NW 5 7 30.26 1025 10 16 0.00 0.00
2:55 am 02:55 Partly Cloudy 45 7 43 6 93 93 NW 5 7 30.27 1025 10 16 0.00 0.00
3:15 am 03:15 Mostly Cloudy 45 7 43 6 93 93 WNW 6 9 30.27 1025 10 16 0.00 0.00
3:35 am 03:35 Partly Cloudy 45 7 45 7 100 100 Calm 30.27 1025 10 16 0.00 0.00
3:55 am 03:55 Mostly Cloudy 45 7 45 7 100 100 W 5 7 30.27 1025 10 16 0.00 0.00
4:15 am 04:15 Mostly Cloudy 45 7 45 7 100 100 Calm 30.27 1025 10 16 0.00 0.00
4:35 am 04:35 Clear 45 7 43 6 93 93 Calm 30.27 1025 10 16 0.00 0.00
4:55 am 04:55 Clear 45 7 45 7 100 100 SSW 3 6 30.27 1025 10 16 0.00 0.00
5:15 am 05:15 Clear 45 7 43 6 93 93 Calm 30.27 1025 10 16 0.00 0.00
5:35 am 05:35 Clear 43 6 43 6 100 100 Calm 30.28 1025 10 16 0.00 0.00
5:55 am 05:55 Sunny 43 6 43 6 100 100 W 3 6 30.28 1025 10 16 0.00 0.00
6:15 am 06:15 Sunny 43 6 43 6 100 100 W 3 6 30.29 1026 10 16 0.00 0.00
6:35 am 06:35 Sunny 43 6 43 6 100 100 Calm 30.30 1026 10 16 0.00 0.00
6:55 am 06:55 Sunny 45 7 45 7 100 100 Calm 30.31 1026 10 16 0.00 0.00
7:15 am 07:15 Sunny 46 8 45 7 93 93 W 5 7 30.31 1026 10 16 0.00 0.00
7:35 am 07:35 Sunny 50 10 46 8 88 88 NW 6 9 30.32 1027 10 16 0.00 0.00
7:55 am 07:55 Sunny 52 11 46 8 82 82 WNW 9 15 30.31 1027 10 16 0.00 0.00
8:15 am 08:15 Sunny 54 12 46 8 77 77 NW 8 13 30.32 1027 10 16 0.00 0.00
8:35 am 08:35 Sunny 54 12 46 8 77 77 NW 15 24 30.32 1027 10 16 0.00 0.00
8:55 am 08:55 Sunny 55 13 46 8 72 72 NW 14 22 30.33 1027 10 16 0.00 0.00
9:15 am 09:15 Sunny 55 13 46 8 72 72 NW 12 19 30.33 1027 10 16 0.00 0.00
9:35 am 09:35 Sunny 57 14 46 8 67 67 N 9 15 30.33 1027 10 16 0.00 0.00
9:55 am 09:55 Sunny 59 15 46 8 63 63 N 8 13 30.33 1027 10 16 0.00 0.00
10:15 am 10:15 Sunny 59 15 46 8 63 63 N 9 15 30.34 1027 10 16 0.00 0.00
10:35 am 10:35 Partly Cloudy 61 16 46 8 59 59 N 13 20 30.33 1027 10 16 0.00 0.00
10:55 am 10:55 Partly Cloudy 61 16 46 8 59 59 N 16 26 30.33 1027 10 16 0.00 0.00
11:15 am 11:15 Partly Cloudy 63 17 45 7 52 52 N 12 19 30.32 1027 10 16 0.00 0.00
11:35 am 11:35 Sunny 63 17 46 8 56 56 N 10 17 30.32 1027 10 16 0.00 0.00
11:55 am 11:55 Partly Cloudy 63 17 46 8 56 56 NNW 13 20 30.33 1027 10 16 0.00 0.00
12:15 pm 12:15 Sunny 63 17 45 7 52 52 N 12 19 30.32 1027 10 16 0.00 0.00
12:35 pm 12:35 Sunny 64 18 46 8 52 52 N 6 9 30.31 1027 10 16 0.00 0.00
12:55 pm 12:55 Sunny 64 18 46 8 52 52 NNW 13 20 30.31 1027 10 16 0.00 0.00
1:15 pm 13:15 Partly Cloudy 64 18 48 9 56 56 NNW 8 13 30.30 1026 10 16 0.00 0.00
1:35 pm 13:35 Partly Cloudy 66 19 45 7 46 46 N 12 19 30.29 1026 10 16 0.00 0.00
1:55 pm 13:55 Sunny 68 20 46 8 46 46 N 6 9 30.29 1026 10 16 0.00 0.00
2:15 pm 14:15 Partly Cloudy 68 20 46 8 46 46 WNW 6 9 30.28 1025 10 16 0.00 0.00
2:35 pm 14:35 Partly Cloudy 68 20 46 8 46 46 WNW 9 15 30.27 1025 10 16 0.00 0.00
2:55 pm 14:55 Partly Cloudy 68 20 46 8 46 46 N 6 9 30.27 1025 10 16 0.00 0.00
3:15 pm 15:15 Sunny 68 20 45 7 43 43 N 3 6 30.26 1025 10 16 0.00 0.00
3:35 pm 15:35 Sunny 70 21 46 8 43 43 WNW 6 9 30.27 1025 10 16 0.00 0.00
3:55 pm 15:55 Sunny 70 21 46 8 43 43 NW 8 13 30.26 1025 10 16 0.00 0.00
4:15 pm 16:15 Sunny 70 21 46 8 43 43 Calm 30.26 1025 10 16 0.00 0.00
4:35 pm 16:35 Sunny 70 21 45 7 40 40 N 3 6 30.26 1025 10 16 0.00 0.00
4:55 pm 16:55 Sunny 70 21 45 7 40 40 N 3 6 30.26 1025 10 16 0.00 0.00
5:15 pm 17:15 Sunny 70 21 46 8 43 43 NW 7 11 30.26 1025 10 16 0.00 0.00
5:35 pm 17:35 Sunny 70 21 45 7 40 40 N 6 9 30.26 1025 10 16 0.00 0.00
5:55 pm 17:55 Sunny 72 22 46 8 41 41 Calm 30.26 1025 10 16 0.00 0.00
6:15 pm 18:15 Sunny 72 22 46 8 41 41 W 5 7 30.26 1025 10 16 0.00 0.00
6:35 pm 18:35 Sunny 72 22 46 8 41 41 W 5 7 30.26 1025 10 16 0.00 0.00
6:55 pm 18:55 Sunny 72 22 46 8 41 41 WNW 5 7 30.26 1025 10 16 0.00 0.00
7:15 pm 19:15 Sunny 72 22 46 8 41 41 W 3 6 30.26 1025 10 16 0.00 0.00
7:35 pm 19:35 Sunny 70 21 46 8 43 43 Calm 30.27 1025 10 16 0.00 0.00
7:55 pm 19:55 Sunny 70 21 46 8 43 43 Calm 30.27 1025 10 16 0.00 0.00
8:15 pm 20:15 Sunny 70 21 48 9 46 46 Calm 30.27 1025 10 16 0.00 0.00
8:35 pm 20:35 Clear 66 19 48 9 52 52 S 3 6 30.27 1025 10 16 0.00 0.00
8:55 pm 20:55 Clear 64 18 48 9 56 56 Calm 30.27 1025 10 16 0.00 0.00
9:15 pm 21:15 Clear 63 17 50 10 64 64 Calm 30.28 1025 10 16 0.00 0.00
9:35 pm 21:35 Clear 59 15 52 11 77 77 Calm 30.28 1025 10 16 0.00 0.00
9:55 pm 21:55 Clear 59 15 54 12 82 82 Calm 30.29 1026 10 16 0.00 0.00
10:15 pm 22:15 Clear 59 15 52 11 77 77 Calm 30.29 1026 10 16 0.00 0.00
10:35 pm 22:35 Clear 57 14 52 11 82 82 Calm 30.29 1026 10 16 0.00 0.00
10:55 pm 22:55 Clear 55 13 52 11 88 88 Calm 30.29 1026 10 16 0.00 0.00
11:15 pm 23:15 Clear 55 13 52 11 88 88 Calm 30.28 1025 10 16 0.00 0.00
11:35 pm 23:35 Clear 54 12 52 11 94 94 Calm 30.29 1026 10 16 0.00 0.00
11:55 pm 23:55 Clear 54 12 52 11 94 94 Calm 30.29 1026 10 16 0.00 0.00

Powered by AerisWeather